This is the latest recevied weather packets stored in our database for station/object N2OCK. If no packets are shown the sender has not sent any weather packets the latest 10 day(s).
| Time | Temp. | Humidity | Pressure | Rain* | Wind** | Luminosity | Snow |
|---|---|---|---|---|---|---|---|
| 1777464247 | 12.78° C | 73% | 1016.5 hPa | 0 mm | - | 193 W/m² | - |
| 1777463942 | 12.78° C | 75% | 1016.6 hPa | 0 mm | - | 190 W/m² | - |
| 1777463638 | 11.67° C | 77% | 1016.7 hPa | 0 mm | - | 171 W/m² | - |
| 1777463333 | 11.67° C | 77% | 1016.7 hPa | 0 mm | - | 123 W/m² | - |
| 1777463030 | 11.11° C | 78% | 1016.8 hPa | 0 mm | - | 100 W/m² | - |
| 1777462725 | 11.11° C | 79% | 1017.1 hPa | 0 mm | - | 89 W/m² | - |
| 1777462420 | 11.11° C | 80% | 1017.2 hPa | 0 mm | - | 97 W/m² | - |
| 1777462117 | 10.56° C | 80% | 1017 hPa | 0 mm | - | 91 W/m² | - |
| 1777461814 | 10.56° C | 80% | 1017.2 hPa | 0 mm | - | 83 W/m² | - |
| 1777461509 | 10.56° C | 82% | 1016.9 hPa | 0 mm | - | 86 W/m² | - |
| 1777461206 | 10° C | 84% | 1017.1 hPa | 0 mm | - | 75 W/m² | - |
| 1777460901 | 10° C | 84% | 1017.1 hPa | 0 mm | - | 65 W/m² | - |
| 1777460597 | 10° C | 85% | 1017.3 hPa | 0 mm | - | 63 W/m² | - |
| 1777460293 | 10° C | 87% | 1017.2 hPa | 0 mm | - | 63 W/m² | - |
| 1777459991 | 9.44° C | 90% | 1017.2 hPa | 0 mm | - | 57 W/m² | - |
| 1777459687 | 8.89° C | 90% | 1017 hPa | 0 mm | - | 57 W/m² | - |
| 1777459383 | 8.89° C | 90% | 1016.8 hPa | 0 mm | - | 46 W/m² | - |
| 1777459081 | 8.33° C | 90% | 1017.1 hPa | 0 mm | - | 43 W/m² | - |
| 1777458778 | 8.33° C | 91% | 1017 hPa | 0 mm | - | 34 W/m² | - |
| 1777458475 | 8.33° C | 91% | 1017.1 hPa | 0 mm | - | 30 W/m² | - |
| 1777458172 | 8.33° C | 91% | 1017.1 hPa | 0 mm | - | 25 W/m² | - |
| 1777457866 | 8.33° C | 91% | 1017.1 hPa | 0 mm | - | 19 W/m² | - |
| 1777457562 | 8.33° C | 91% | 1016.9 hPa | 0 mm | - | 15 W/m² | - |
| 1777457258 | 8.33° C | 91% | 1017 hPa | 0 mm | - | 9 W/m² | - |
| 1777456954 | 8.33° C | 91% | 1017.2 hPa | 0 mm | - | 6 W/m² | - |
* Rain latest hour (hover to see other rain measurements)
** Current wind speed in m/s (hover to see current wind gust speed)